Location: Gleizolles
(44.4833°N, 6.7667°E)
Time: 21:55:47
(UTC+00:00)

Meteor 2-3 Rocket - Pass Details

Date: 09 April 2020
Orbit: 842 x 885 km, 81.2° (Epoch: 24 May)

Event Time Altitude Azimuth Distance (km) Brightness Sun altitude
Rises 21:48:29 0° 347° (NNW) 3,476 7.9 -32.3°
Reaches altitude 10° 21:50:57 10° 345° (NNW) 2,527 7.0 -32.6°
Enters shadow 21:55:25 54° 325° (NW) 1,049 4.3 -33.0°
